Temperature
9 10 10 10 10 11 11 11 11 12 12 12 12 12 12 13 13 13 13 13 13 13 13 13 13 13 13 13 13 13 13 13 13 13 13 13 13 13 13 13 13 13 13
9 9 9 10 10 10 11 11 11 11 12 12 12 12 12 12 12 13 13 13 13 13 13 13 13 13 13 13 13 13 13 13 12 12 12 12 12 13 13 13 12 12 12
8 8 9 10 10 10 10 11 11 11 11 11 11 11 11 12 12 12 12 12 13 13 13 13 13 13 13 13 13 13 13 12 12 12 12 12 12 12 12 12 12 12 12
7 8 8 9 9 10 10 10 10 10 11 11 11 11 11 11 12 12 12 12 12 12 12 12 12 12 12 13 12 12 12 12 12 12 12 12 12 12 12 12 12 12 12
7 7 8 8 9 9 10 10 10 10 10 11 11 11 11 11 11 11 11 12 12 12 12 12 12 12 12 12 12 12 12 12 12 12 12 11 11 11 11 11 12 11 12
6 7 7 8 8 8 9 9 10 10 10 10 10 10 11 11 11 11 11 11 11 11 11 11 11 12 12 12 12 12 11 11 11 11 11 11 11 11 11 11 11 11 11
6 6 7 7 8 8 9 9 9 10 10 10 10 10 10 10 10 10 11 11 11 11 11 11 11 11 11 11 11 11 11 11 11 11 11 11 11 11 11 11 11 10 10
5 6 6 7 7 8 8 8 8 9 9 9 9 9 10 10 10 10 10 10 10 11 11 11 11 11 11 11 11 11 11 11 11 11 11 10 10 10 10 10 10 9 9
5 5 6 7 7 7 8 8 8 8 8 9 9 9 9 9 9 9 10 10 10 10 10 10 10 10 10 10 10 10 10 10 10 10 10 10 10 10 10 10 10 9 9
5 5 5 6 6 7 7 8 8 8 8 8 9 9 9 9 9 9 9 9 9 9 10 10 10 10 10 10 10 10 10 10 10 9 9 9 9 9 9 9 9 9 9
4 5 5 6 6 6 7 7 7 8 8 8 8 8 8 8 8 9 9 9 9 9 9 9 9 9 9 9 9 9 9 9 9 9 9 9 9 9 9 8 8 8 8
4 5 5 5 6 6 6 6 7 7 7 7 7 7 8 8 8 8 8 8 8 8 8 9 8 8 8 8 8 8 8 8 8 8 8 8 8 8 8 8 8 8 8
4 4 5 5 5 5 6 6 6 6 7 7 7 7 7 7 7 8 8 8 8 8 8 8 8 8 8 8 8 8 8 7 7 7 7 7 7 7 7 7 7 7 7
4 4 4 5 5 5 5 5 6 6 6 6 7 7 7 7 7 7 7 7 7 7 7 7 7 7 7 7 7 6 6 6 6 6 6 6 6 6 6 6 6 6 6
4 4 4 4 5 5 5 5 5 6 6 6 6 6 6 6 6 7 7 7 7 7 7 7 7 6 6 6 6 6 6 5 5 6 6 6 6 6 6 6 6 6 5
4 4 4 4 4 4 5 5 5 5 5 5 5 6 6 6 6 6 6 6 6 6 6 6 6 6 5 5 5 5 5 5 5 5 5 5 5 5 5 5 5 5 5
4 4 4 4 4 4 4 4 4 4 5 5 5 5 5 5 5 5 5 5 5 5 5 5 5 5 5 4 4 4 4 4 4 4 4 4 4 4 4 4 4 4 4
4 4 4 4 4 4 4 4 4 4 4 4 4 4 5 5 5 5 4 4 4 4 4 4 4 4 4 4 3 3 3 3 3 3 3 3 3 3 3 3 3 4 4
5 4 4 4 4 4 4 4 4 4 4 4 4 4 4 4 4 4 4 3 3 3 3 3 3 3 3 3 3 2 2 2 3 3 3 2 3 3 3 2 3 3 3
5 4 4 4 4 4 4 4 4 3 3 3 3 3 3 3 3 3 3 2 3 3 2 2 2 2 2 2 2 2 2 2 2 2 2 2 2 2 2 2 2 2 2
5 4 4 4 4 3 3 3 3 3 2 2 2 2 2 2 2 2 2 2 2 2 2 2 2 1 1 1 1 1 1 1 1 1 1 1 1 1 1 1 1 1 1
5 4 4 4 3 3 3 2 2 2 2 2 2 2 2 2 1 1 1 1 1 1 1 1 1 1 1 0 0 -0 -0 -0 0 0 0 1 0 0 0 0 1 1 1
5 4 4 3 3 3 2 2 2 2 2 2 2 1 1 1 1 1 1 1 0 0 -0 -0 -0 -0 -0 -0 -1 -1 -1 -1 -1 -0 -0 -0 -0 -0 -0 -0 -0 -0 -0
4 4 3 3 3 2 2 2 2 2 1 1 1 1 1 1 0 0 -0 -0 -1 -1 -1 -2 -2 -2 -2 -2 -2 -2 -2 -1 -1 -1 -1 -1 -1 -1 -1 -1 -1 -1 -1
4 4 3 3 3 2 2 2 1 1 1 1 0 0 0 -0 -0 -0 -1 -1 -1 -2 -2 -3 -3 -3 -3 -3 -3 -3 -3 -2 -2 -2 -2 -1 -1 -1 -1 -2 -2 -2 -2
4 3 3 3 2 2 2 1 1 1 0 0 -0 -0 -1 -1 -1 -1 -1 -1 -2 -2 -3 -3 -3 -3 -3 -3 -3 -3 -3 -3 -3 -3 -2 -2 -2 -2 -2 -2 -2 -2 -2
Wind_Speed
8 6 6 6 7 7 8 9 9 8 6 5 5 6 6 6 6 6 7 9 10 10 8 6 7 7 7 7 7 5 5 3 3 2 0 1 1 3 2 2 3 4 6
6 5 4 4 5 6 7 7 8 8 8 7 5 4 4 5 5 5 6 8 9 9 8 8 7 7 7 7 7 6 4 3 5 3 2 1 2 2 2 3 4 4 4
6 5 5 4 3 5 6 6 7 7 7 7 5 4 3 3 3 5 5 6 7 8 7 8 7 7 7 7 8 8 7 5 4 4 4 3 4 2 2 3 4 4 4
5 4 4 4 3 3 3 4 5 5 5 6 6 7 5 4 4 4 4 5 6 6 7 7 7 7 7 7 8 8 6 6 5 4 3 3 3 3 2 2 3 4 5
6 5 5 4 3 1 2 3 3 3 3 4 6 7 5 4 3 3 4 4 5 5 5 6 6 7 7 7 7 7 7 6 6 5 3 2 1 2 3 4 3 3 4
7 7 6 6 5 3 2 3 3 2 2 4 4 5 5 5 5 4 4 4 3 3 4 4 5 6 6 7 7 8 8 7 7 6 5 4 4 4 4 4 4 4 3
8 8 8 7 7 6 4 4 4 3 3 4 4 4 4 5 4 4 4 3 3 2 3 3 4 5 5 6 6 7 8 8 8 8 6 6 5 4 3 4 4 4 3
10 9 8 7 6 5 5 4 4 4 4 4 4 3 3 3 2 2 2 2 2 3 3 3 4 4 5 5 5 6 7 7 8 8 7 6 5 5 5 4 4 4 4
10 10 10 8 7 6 5 4 4 5 5 4 4 4 4 3 2 2 2 1 1 2 3 3 4 4 5 5 5 5 6 6 7 7 8 6 5 5 5 5 6 6 6
9 10 9 9 9 8 7 7 6 6 5 4 4 4 4 4 3 2 1 1 0 0 1 2 3 4 4 4 4 4 5 6 6 6 7 7 5 5 5 6 6 6 7
9 8 8 8 8 9 9 8 7 7 6 5 5 5 4 4 4 3 2 1 0 0 0 1 1 2 3 4 4 5 5 6 6 5 7 8 6 6 6 6 6 6 6
7 8 9 9 9 9 9 8 8 7 6 6 6 5 5 4 4 3 3 1 1 0 1 1 0 1 2 3 4 5 5 6 7 7 7 8 6 7 6 6 7 7 6
8 8 9 9 9 8 8 8 8 7 6 6 6 6 5 5 5 4 3 3 2 2 1 1 1 2 2 3 3 4 5 6 7 7 7 7 7 8 6 7 7 6 5
7 8 8 8 8 8 7 8 8 7 7 7 7 7 6 5 5 5 5 4 4 3 3 2 2 2 2 2 2 3 4 5 5 6 7 7 8 9 8 7 7 6 6
6 7 8 8 8 8 8 7 8 8 8 8 8 7 6 6 6 6 6 6 6 5 4 3 4 3 2 2 2 2 3 4 5 5 6 7 9 10 9 7 7 7 7
4 5 6 7 8 7 7 7 8 8 7 8 7 7 7 7 7 7 7 7 6 6 6 5 4 4 4 6 7 5 3 4 5 6 6 6 7 9 11 11 11 11 9
2 3 4 4 5 6 5 6 6 6 7 8 8 8 8 8 7 7 7 7 6 6 6 6 5 4 6 9 9 8 5 4 5 5 5 5 5 7 6 9 10 11 14
0 1 2 3 4 4 5 5 6 7 7 8 8 8 7 7 7 7 7 6 5 5 6 6 6 6 7 10 10 10 5 4 4 5 5 6 6 6 6 6 7 7 8
2 1 0 1 2 4 4 5 6 7 7 8 7 7 7 7 7 7 7 6 6 6 6 6 6 7 8 11 11 10 5 4 5 5 5 6 6 9 10 7 7 7 6
2 1 1 2 3 3 4 5 6 6 6 6 5 6 6 6 6 6 5 5 4 5 5 6 6 6 7 11 13 11 4 5 6 5 5 8 9 11 10 6 6 7 6
2 2 2 2 2 2 3 4 4 4 4 4 5 5 5 5 5 4 4 5 5 5 5 6 6 6 8 11 13 13 6 6 6 6 6 6 11 11 11 9 6 8 6
2 2 2 1 1 2 2 2 3 3 3 3 4 5 5 5 5 5 5 5 5 6 6 6 7 6 7 10 12 14 12 11 7 7 6 7 12 12 11 9 8 9 6
3 2 3 1 1 1 1 0 2 2 3 3 4 4 5 5 5 5 5 5 5 5 6 6 7 8 7 9 14 15 15 14 9 7 11 12 12 11 9 9 8 6 3
4 3 3 2 1 1 0 1 2 2 2 3 4 5 5 5 5 5 4 4 5 5 6 6 7 8 8 7 8 8 9 12 10 8 9 11 10 8 7 6 5 3 4
4 4 4 4 3 2 1 1 1 1 2 2 3 3 4 4 5 5 4 5 4 5 6 6 6 8 8 11 16 13 9 9 9 9 5 4 4 3 3 3 3 2 3
5 4 5 4 3 3 2 2 1 0 0 2 2 3 3 4 4 5 6 7 7 11 11 10 10 8 12 17 18 18 17 16 15 9 5 5 5 5 4 4 4 3 3
Wind_Direction
270 264 254 240 233 225 215 211 209 208 191 184 182 183 194 191 187 189 184 182 179 179 178 183 179 181 187 188 183 178 177 177 154 133 289 298 244 223 219 204 195 197 198
297 295 279 249 233 227 217 211 207 204 196 189 178 171 174 182 181 182 182 179 178 180 183 184 187 187 189 189 188 179 177 184 176 160 149 262 284 247 214 209 210 209 192
304 303 296 276 255 241 218 207 202 199 194 185 163 147 138 139 169 179 183 179 174 178 180 182 183 188 190 196 196 190 186 191 196 192 175 186 226 255 238 217 210 203 201
326 321 325 325 303 261 218 190 190 191 186 174 165 167 175 177 177 178 180 176 176 180 182 186 186 189 192 195 199 197 194 184 196 208 214 205 177 190 240 247 223 213 211
348 345 344 336 325 298 177 166 169 178 176 165 169 168 171 169 153 149 163 175 180 180 183 187 194 194 197 201 199 200 200 198 198 197 194 199 218 202 208 246 245 241 231
1 4 5 9 14 35 75 114 135 139 142 147 158 167 166 159 157 160 170 177 177 177 183 191 201 200 202 204 205 205 206 209 208 208 202 194 198 206 203 229 239 239 237
10 12 14 17 20 34 51 73 100 105 114 127 135 142 146 143 157 172 176 179 185 192 201 204 207 205 206 207 206 209 209 211 212 214 218 217 219 201 199 217 235 241 241
17 17 15 17 22 37 50 67 89 93 94 100 105 108 115 128 149 154 167 182 199 202 196 207 217 215 210 211 209 215 215 212 215 219 220 226 225 212 208 206 211 242 245
15 15 13 17 27 36 45 64 79 81 79 82 93 93 98 105 106 120 137 171 195 195 190 207 216 220 216 213 212 223 221 215 219 222 223 229 232 225 222 215 213 220 243
13 14 15 19 27 34 41 53 64 72 73 71 77 81 79 79 75 67 65 86 73 174 200 214 218 224 223 215 211 225 228 227 229 227 228 232 233 229 225 223 225 225 232
8 11 14 19 28 34 37 43 48 55 57 61 63 68 63 60 55 44 42 76 73 252 231 251 253 248 242 227 217 222 224 228 235 236 234 238 232 230 228 225 225 229 229
15 15 18 23 31 35 36 39 42 46 47 56 64 65 62 59 55 40 36 68 107 54 35 22 327 271 248 232 223 225 228 230 234 236 236 240 237 236 233 228 228 229 225
19 18 22 24 27 30 32 35 38 41 43 50 59 60 57 55 49 39 37 43 54 52 44 49 13 338 301 259 243 236 239 240 241 240 241 244 239 245 241 236 234 232 229
23 23 23 19 21 26 30 35 34 36 41 47 48 48 43 42 40 38 37 36 33 31 26 23 6 342 329 307 277 260 256 256 255 253 249 246 241 242 237 237 233 228 226
23 21 20 17 19 22 25 32 32 31 37 42 41 37 34 32 32 32 30 31 31 24 20 20 10 2 345 323 319 296 284 278 276 271 260 254 254 252 246 242 233 223 224
10 16 21 19 17 16 18 27 30 31 40 44 38 32 33 33 29 25 23 24 22 18 19 17 8 360 349 343 340 330 306 291 280 277 275 269 259 259 259 254 245 233 227
6 14 10 10 9 10 18 27 28 32 40 40 34 29 30 30 24 22 24 20 15 15 12 5 1 352 343 345 339 329 319 297 284 279 279 284 278 274 259 261 258 249 241
289 347 356 9 10 12 21 30 34 36 36 33 28 22 23 24 21 23 20 15 12 12 6 360 357 354 347 348 344 339 327 299 287 279 273 273 274 270 268 262 257 253 248
198 206 308 21 27 26 24 39 38 35 33 25 18 13 15 16 16 15 7 3 4 3 357 350 350 349 343 345 345 343 328 315 302 291 284 280 277 278 280 270 256 257 260
156 139 92 62 47 23 32 47 37 31 21 9 4 5 10 12 10 2 353 350 353 348 345 344 342 338 334 340 342 340 329 318 311 303 293 288 285 282 281 271 256 255 258
158 134 106 81 45 28 45 48 33 14 351 356 5 8 7 3 357 354 349 345 346 347 347 340 338 337 336 338 340 338 334 316 309 302 294 286 290 286 280 276 263 259 255
158 144 128 93 41 46 61 47 2 334 346 1 8 5 0 358 358 355 349 349 350 350 346 342 338 336 334 336 336 337 333 325 310 302 296 293 295 291 286 278 267 261 248
179 165 155 143 41 33 89 80 306 328 353 4 1 355 355 355 353 351 346 347 351 350 342 340 336 332 332 332 335 334 331 326 317 303 300 298 296 295 288 280 271 255 233
186 173 164 179 218 248 260 257 306 344 5 359 349 348 350 347 346 343 339 340 340 336 332 331 327 323 324 325 327 324 322 321 316 309 304 302 298 293 287 281 270 247 221
186 177 186 203 221 227 242 276 308 14 4 344 337 337 336 334 332 329 325 327 317 322 323 318 316 318 319 321 325 324 319 317 308 311 305 303 303 295 290 285 272 249 225
185 187 199 206 213 212 227 243 246 207 334 331 329 329 329 328 330 331 329 328 326 327 326 323 319 315 315 319 323 323 321 320 317 314 303 299 295 289 284 282 280 262 239
Height
1438 1438 1439 1440 1441 1443 1444 1446 1449 1452 1456 1459 1463 1466 1469 1472 1476 1480 1484 1488 1491 1494 1498 1501 1505 1508 1511 1513 1516 1519 1521 1523 1525 1527 1528 1528 1529 1530 1530 1531 1532 1532 1532
1434 1434 1434 1435 1436 1437 1439 1441 1444 1447 1451 1454 1458 1461 1465 1468 1472 1476 1480 1483 1486 1490 1493 1497 1500 1503 1507 1509 1512 1514 1516 1518 1521 1522 1523 1524 1525 1524 1526 1526 1527 1528 1528
1433 1431 1431 1431 1432 1433 1435 1437 1440 1443 1446 1450 1453 1457 1461 1463 1467 1471 1475 1478 1482 1485 1489 1492 1495 1498 1502 1504 1507 1509 1511 1513 1516 1518 1519 1520 1519 1520 1520 1521 1522 1523 1523
1431 1429 1428 1428 1428 1429 1430 1434 1437 1440 1443 1446 1449 1452 1456 1458 1462 1466 1470 1474 1478 1481 1484 1487 1490 1493 1496 1499 1501 1504 1506 1508 1510 1512 1514 1516 1515 1516 1515 1516 1517 1518 1518
1430 1428 1426 1425 1425 1425 1427 1430 1433 1436 1439 1443 1446 1449 1453 1456 1459 1463 1466 1470 1473 1476 1480 1483 1486 1488 1491 1493 1496 1498 1501 1503 1504 1506 1508 1509 1511 1511 1511 1510 1511 1512 1512
1430 1428 1426 1425 1423 1423 1425 1427 1430 1434 1436 1440 1444 1446 1449 1452 1456 1459 1462 1465 1469 1472 1475 1478 1481 1483 1485 1488 1490 1493 1495 1497 1499 1501 1502 1503 1505 1505 1505 1505 1505 1505 1506
1432 1429 1427 1425 1424 1423 1424 1426 1429 1432 1435 1438 1441 1443 1446 1449 1453 1456 1459 1462 1464 1467 1470 1473 1475 1477 1480 1482 1484 1487 1489 1491 1493 1494 1496 1497 1499 1500 1500 1501 1500 1499 1500
1435 1432 1429 1428 1426 1425 1425 1427 1429 1431 1434 1436 1439 1442 1444 1447 1450 1453 1456 1458 1460 1463 1465 1468 1470 1472 1474 1476 1478 1481 1482 1484 1486 1488 1489 1491 1492 1493 1494 1494 1495 1494 1493
1438 1435 1432 1430 1429 1428 1428 1429 1430 1432 1434 1436 1439 1441 1443 1446 1448 1450 1453 1455 1457 1459 1461 1463 1465 1467 1468 1470 1472 1474 1476 1477 1479 1481 1482 1483 1484 1486 1487 1488 1489 1489 1486
1441 1438 1435 1433 1432 1431 1431 1432 1432 1433 1435 1437 1438 1440 1442 1444 1446 1448 1449 1451 1453 1455 1456 1458 1460 1461 1462 1463 1465 1467 1469 1470 1472 1473 1475 1476 1477 1478 1479 1480 1481 1481 1480
1445 1442 1439 1436 1435 1434 1433 1434 1434 1435 1436 1437 1438 1440 1442 1443 1444 1445 1446 1447 1449 1451 1452 1453 1454 1455 1456 1457 1459 1460 1462 1463 1464 1465 1467 1468 1469 1470 1471 1472 1472 1473 1473
1448 1445 1442 1439 1437 1436 1436 1436 1436 1436 1437 1438 1439 1440 1441 1442 1443 1443 1443 1444 1446 1447 1448 1448 1449 1450 1451 1451 1452 1453 1455 1456 1456 1457 1459 1460 1461 1462 1463 1463 1464 1465 1465
1451 1448 1446 1443 1441 1440 1439 1438 1438 1438 1439 1439 1439 1440 1441 1441 1441 1441 1442 1442 1443 1444 1444 1445 1445 1446 1445 1446 1446 1447 1448 1449 1450 1451 1451 1452 1453 1454 1455 1455 1456 1456 1457
1455 1452 1450 1447 1445 1443 1442 1441 1441 1440 1440 1440 1440 1440 1441 1441 1441 1441 1441 1441 1441 1441 1442 1442 1442 1442 1441 1441 1441 1442 1442 1443 1443 1444 1444 1445 1445 1446 1447 1447 1447 1448 1448
1457 1455 1453 1450 1448 1447 1445 1444 1443 1443 1442 1441 1441 1441 1441 1441 1441 1441 1441 1440 1440 1440 1439 1439 1439 1439 1438 1437 1436 1436 1436 1436 1437 1437 1438 1438 1438 1438 1439 1439 1439 1440 1440
1459 1457 1456 1453 1451 1450 1449 1447 1446 1445 1444 1443 1442 1442 1442 1441 1441 1440 1440 1440 1439 1438 1438 1437 1436 1436 1435 1434 1433 1433 1432 1432 1431 1431 1431 1431 1431 1431 1431 1431 1432 1432 1432
1460 1459 1458 1456 1454 1453 1451 1450 1449 1447 1446 1444 1444 1443 1442 1442 1441 1440 1440 1439 1438 1437 1436 1435 1434 1433 1432 1431 1430 1429 1428 1427 1427 1426 1426 1425 1425 1425 1424 1423 1423 1424 1424
1461 1460 1459 1458 1457 1455 1454 1452 1451 1449 1448 1446 1445 1444 1443 1442 1441 1440 1439 1438 1437 1435 1434 1433 1431 1430 1429 1428 1427 1426 1424 1423 1422 1422 1421 1419 1418 1418 1417 1416 1416 1416 1416
1461 1461 1460 1459 1458 1457 1455 1454 1452 1451 1450 1448 1447 1446 1444 1443 1441 1440 1439 1437 1435 1434 1432 1431 1429 1428 1426 1425 1423 1422 1420 1418 1417 1417 1415 1414 1413 1412 1412 1411 1409 1409 1408
1461 1460 1460 1459 1458 1457 1456 1455 1453 1452 1451 1450 1448 1446 1445 1443 1441 1440 1438 1436 1434 1433 1431 1429 1428 1425 1423 1421 1419 1418 1416 1414 1413 1411 1410 1409 1408 1407 1406 1405 1403 1402 1402
1460 1460 1459 1459 1458 1457 1456 1455 1454 1452 1451 1450 1448 1446 1445 1443 1441 1439 1437 1435 1433 1431 1429 1427 1425 1423 1421 1418 1417 1415 1413 1410 1408 1406 1404 1403 1402 1401 1399 1399 1397 1396 1396
1458 1458 1458 1458 1458 1457 1456 1455 1454 1453 1451 1450 1448 1446 1444 1442 1440 1438 1436 1434 1431 1429 1426 1424 1422 1420 1418 1416 1414 1412 1410 1407 1404 1402 1399 1398 1397 1395 1394 1393 1391 1391 1391
1456 1456 1457 1457 1456 1456 1455 1454 1453 1452 1450 1448 1447 1445 1443 1441 1438 1436 1434 1431 1429 1426 1424 1422 1419 1417 1415 1413 1411 1408 1405 1403 1400 1397 1395 1393 1392 1390 1388 1387 1386 1386 1385
1454 1455 1455 1455 1455 1454 1454 1453 1452 1450 1449 1447 1445 1443 1441 1439 1437 1434 1432 1430 1427 1424 1422 1420 1417 1414 1412 1409 1406 1404 1401 1398 1396 1393 1390 1389 1387 1385 1384 1382 1381 1381 1381
1452 1452 1452 1453 1453 1452 1452 1451 1450 1449 1447 1445 1443 1441 1439 1437 1435 1433 1430 1428 1425 1423 1421 1418 1415 1412 1409 1406 1404 1401 1397 1394 1392 1389 1386 1384 1382 1380 1379 1378 1377 1376 1376
1449 1449 1450 1450 1450 1450 1449 1449 1448 1446 1445 1443 1441 1439 1437 1435 1432 1430 1428 1425 1424 1421 1418 1416 1413 1409 1407 1403 1400 1397 1394 1390 1388 1385 1382 1379 1378 1376 1375 1374 1372 1372 1372